Theta_e
318 319 321 321 326 325 329 332 342 343 338 346 347 349 352 351 349 350 350 349 348 348 346 345 348 349 348 348 351 355 356 356 355 355 356 355 355 354 353 352 352 351 350 350
318 319 319 323 327 326 326 325 332 336 340 345 347 350 347 347 348 347 347 347 347 346 345 344 346 347 348 348 350 353 354 354 355 355 355 354 355 355 353 351 350 351 350 348
316 318 322 328 329 330 326 328 329 336 340 345 349 351 350 348 347 346 346 345 346 346 346 344 345 345 347 348 348 350 352 351 352 356 356 355 353 354 353 353 354 349 350 348
318 319 325 329 330 328 330 325 329 335 340 346 347 355 347 349 350 349 349 348 348 348 346 344 345 347 348 347 347 349 350 351 352 354 355 354 353 354 349 349 349 352 351 343
318 321 322 327 330 327 329 325 325 332 336 341 345 346 347 347 350 350 349 348 349 349 347 346 346 347 348 347 348 349 351 352 354 355 355 354 353 349 344 344 351 352 338 335
318 321 322 323 325 326 327 325 321 324 330 341 346 341 341 350 350 349 345 347 350 348 349 346 347 347 348 350 350 350 352 354 355 356 357 355 355 348 339 346 347 338 336 334
321 321 322 325 325 324 323 320 322 330 337 341 332 340 338 342 346 346 345 344 348 348 350 349 349 348 349 351 352 352 353 356 355 357 358 355 358 342 337 342 339 335 335 334
319 321 322 322 324 324 321 320 322 324 329 333 328 343 342 337 341 343 342 341 345 347 347 350 350 349 349 352 354 354 355 355 356 357 356 358 352 332 334 339 338 335 334 331
317 319 321 323 323 323 324 321 320 321 325 326 325 327 328 336 337 341 339 338 343 346 345 350 350 349 350 352 354 355 356 356 356 355 356 349 331 332 329 332 334 334 331 331
317 321 320 323 322 322 323 321 324 320 326 330 327 330 329 336 339 340 339 336 341 345 344 347 349 347 351 352 354 355 355 355 355 354 352 341 332 333 333 335 336 336 331 330
315 317 319 322 321 322 326 323 321 321 322 326 327 327 326 332 338 339 338 338 339 343 344 345 346 346 348 352 354 354 354 354 353 352 350 337 335 334 335 335 336 336 330 332
315 316 320 319 321 322 321 323 323 325 325 322 324 326 327 331 337 338 337 336 335 338 342 343 344 345 345 348 351 353 353 352 351 351 349 340 336 336 334 334 333 330 326 328
316 315 318 319 321 322 324 323 321 319 321 327 329 328 329 333 335 338 338 336 334 335 338 343 343 343 344 347 349 351 353 351 349 349 347 341 337 338 339 337 335 333 332 332
323 313 321 322 322 322 325 326 323 323 324 324 325 328 334 333 336 334 335 336 336 335 336 339 342 342 343 344 348 350 353 352 350 348 346 342 338 339 342 342 339 336 335 334
319 319 317 321 321 323 325 326 325 325 324 328 326 327 331 332 333 334 333 332 333 335 334 335 339 339 341 342 347 349 352 352 351 348 346 343 338 337 343 343 339 335 335 333
316 319 321 321 321 322 323 324 327 327 323 326 324 326 326 332 332 332 332 332 333 335 335 334 336 338 338 341 345 348 351 352 351 349 348 343 338 337 343 341 335 334 334 333
318 321 319 323 323 325 326 326 327 329 329 327 327 326 327 332 333 333 332 333 334 335 339 333 334 335 338 340 344 347 350 351 351 350 346 345 345 341 340 336 336 333 333 332
325 319 319 323 325 329 326 330 330 335 336 335 334 326 328 330 333 333 330 331 330 332 335 340 336 336 341 343 345 347 349 351 350 347 345 343 341 341 340 336 337 335 334 334
327 321 329 325 324 327 334 336 334 333 335 334 335 333 333 330 331 331 328 328 329 328 327 331 343 344 342 346 348 348 347 348 347 345 343 344 342 341 339 338 337 336 335 335
328 327 330 329 327 331 333 333 335 331 336 333 333 333 332 331 335 331 330 328 328 326 329 331 335 339 342 343 349 347 343 344 344 344 344 344 341 340 339 339 336 337 336 336
337 334 336 334 336 334 334 334 333 336 333 334 331 330 330 331 329 327 328 329 330 331 335 337 340 343 343 346 348 344 341 342 343 343 342 343 340 339 337 336 334 331 331 335
337 340 344 339 338 339 332 334 337 332 328 330 331 331 331 331 332 330 330 328 327 327 329 334 339 347 346 346 346 340 340 341 341 341 341 339 338 337 335 335 331 329 329 330
340 340 342 338 335 330 331 330 329 328 329 329 330 329 330 333 330 330 329 331 334 335 337 338 339 344 346 344 344 339 339 340 340 340 338 333 332 329 328 328 330 329 327 330
337 335 336 335 331 333 330 326 326 326 326 326 326 326 326 330 337 338 339 339 337 336 336 340 341 339 339 340 340 339 339 340 340 335 333 332 333 333 331 329 328 329 332 333
335 337 336 334 333 329 324 325 326 323 323 323 323 325 327 330 334 340 338 338 337 335 336 338 336 336 336 338 337 338 337 338 335 333 332 331 329 328 329 331 334 334 332 330
325 337 336 335 332 327 325 322 321 321 320 320 320 320 318 320 324 334 337 336 333 332 335 335 333 334 334 333 333 334 335 336 332 330 327 326 326 326 328 330 327 329 327 324
Wind_Speed
4 4 7 11 8 7 11 4 15 12 7 5 7 10 21 20 16 16 16 15 15 15 18 24 29 32 31 33 32 33 30 26 24 23 20 17 16 14 14 14 13 13 11 9
2 8 10 7 6 8 5 5 7 3 7 6 4 6 18 21 22 21 19 17 18 16 14 18 24 27 28 33 33 32 31 28 27 26 22 18 16 14 13 11 10 9 10 8
7 5 8 7 5 7 5 6 5 7 9 6 9 3 9 13 9 13 15 16 14 18 17 16 19 26 29 30 34 32 33 29 27 28 23 17 11 10 10 12 11 12 11 8
6 8 8 5 5 7 3 9 8 9 16 7 7 5 9 14 15 13 14 14 16 17 18 17 20 22 26 33 34 32 32 32 28 26 25 22 17 14 13 13 14 16 12 10
8 7 7 5 7 7 9 7 8 9 15 6 4 4 6 12 11 20 20 19 18 17 18 19 21 29 32 34 35 34 32 31 29 29 26 22 18 14 12 13 15 16 12 10
11 4 6 8 6 8 3 4 7 5 5 5 12 7 5 12 27 27 17 18 20 19 19 18 26 27 28 31 34 33 33 32 31 29 27 24 20 14 14 17 19 15 13 11
3 8 4 4 5 4 5 7 3 3 2 5 8 4 9 19 25 25 26 21 22 19 19 18 18 21 24 30 36 37 36 37 34 31 30 27 23 19 18 23 21 16 13 10
6 9 9 4 9 8 7 10 7 7 5 6 5 7 10 15 22 22 16 20 19 21 20 22 21 27 30 33 36 39 38 39 38 34 31 27 24 21 20 21 19 17 15 12
7 8 5 6 7 11 5 5 9 6 1 3 4 6 8 7 11 16 18 17 19 22 20 22 21 29 32 32 36 40 39 40 41 38 33 30 25 22 18 20 18 16 15 14
9 2 7 8 5 6 13 7 2 2 6 5 4 4 6 8 8 11 13 17 20 19 17 17 18 27 34 38 39 38 39 40 44 42 38 34 29 25 21 21 20 19 17 16
8 6 8 6 8 10 2 2 4 5 4 7 4 6 8 8 9 17 20 23 18 17 17 18 19 31 38 39 35 36 34 35 39 44 42 37 30 25 23 20 19 19 17 15
10 7 11 12 5 4 7 11 10 8 5 1 4 7 5 9 9 12 13 14 10 12 15 18 19 29 29 33 32 34 33 34 39 43 43 39 32 28 25 21 20 19 18 16
9 5 5 7 4 1 5 6 5 4 4 8 7 6 1 4 6 10 11 10 11 13 12 17 16 18 27 30 33 35 33 37 35 41 44 39 35 32 29 26 24 23 20 18
17 5 15 14 9 6 6 6 7 8 5 6 6 5 4 7 8 8 9 11 14 16 17 16 15 17 27 29 30 30 34 34 36 41 42 43 41 38 33 31 31 29 25 21
15 11 8 20 15 6 6 6 7 7 9 9 8 10 10 12 13 14 14 9 12 13 12 15 17 17 21 24 26 29 31 32 38 38 40 45 43 39 36 32 31 31 28 25
6 7 9 8 12 13 10 14 12 14 6 4 8 7 8 14 5 5 11 12 10 10 16 15 17 15 15 24 28 32 33 34 35 38 41 33 41 37 38 32 30 30 31 28
1 9 6 17 6 7 5 8 16 7 1 7 6 10 6 4 8 12 12 14 14 10 9 10 11 11 15 21 24 28 31 30 35 39 31 43 45 44 42 36 31 29 32 29
3 5 0 12 5 7 5 4 13 10 4 3 4 5 7 9 19 14 6 15 10 9 10 9 8 12 24 24 24 26 28 32 33 31 31 32 35 47 39 36 32 32 31 30
3 4 3 6 5 3 3 4 4 8 4 3 1 5 2 4 5 5 5 4 10 9 8 9 20 21 23 23 27 28 27 30 31 26 31 33 50 42 35 34 32 34 31 27
3 6 4 3 7 5 3 6 11 10 2 7 5 6 4 3 7 2 6 3 1 4 8 10 12 8 10 17 20 24 23 26 27 29 38 43 42 33 30 33 32 28 30 28
4 4 4 3 4 3 4 14 7 7 5 7 4 6 13 8 4 4 8 8 4 5 2 4 7 12 10 11 19 21 23 28 32 27 28 34 22 17 12 8 4 9 20 27
2 2 3 2 4 2 15 4 6 3 5 2 5 7 11 8 7 8 9 8 8 8 11 14 8 7 6 12 19 17 20 21 22 26 25 22 17 16 14 13 10 5 10 30
4 1 5 2 3 4 6 8 5 2 14 5 14 8 8 13 10 10 9 10 9 7 9 17 6 4 7 14 22 23 20 18 21 23 19 12 11 9 4 4 12 17 23 29
3 5 4 4 4 6 6 7 5 5 9 7 7 8 9 8 10 9 8 6 6 7 6 9 6 2 6 18 16 19 20 21 22 21 19 12 3 3 6 3 10 13 20 24
3 5 8 6 3 2 12 10 4 7 10 13 11 10 11 10 9 7 9 10 7 5 10 10 9 5 8 15 20 25 30 30 26 14 8 5 3 5 8 7 12 17 20 22
4 5 7 5 6 10 3 6 6 16 11 12 15 14 12 11 12 8 7 5 6 7 2 11 15 21 19 24 29 28 18 22 25 17 19 8 14 23 22 23 14 12 13 13
Wind_Direction
203 143 195 197 185 147 152 186 204 203 179 130 190 153 175 181 186 189 193 197 203 208 203 194 196 199 202 202 204 203 203 206 206 207 210 213 222 226 229 230 237 243 249 260
85 213 211 185 148 134 142 178 204 321 166 96 171 175 179 184 194 191 188 196 199 204 198 194 195 198 199 204 207 206 206 208 211 215 215 220 227 233 236 240 237 230 218 222
173 229 155 182 159 144 164 175 193 187 153 43 116 12 204 214 214 210 204 203 199 190 192 195 190 192 199 201 206 209 208 212 216 217 216 217 218 221 218 222 224 210 203 213
216 246 167 175 196 137 239 202 214 135 158 195 168 217 220 211 215 217 213 204 201 193 193 187 188 188 193 205 208 206 209 212 217 217 213 212 213 215 224 234 220 201 204 222
233 205 188 175 194 145 230 154 199 172 183 123 215 103 253 167 219 225 214 209 204 195 191 191 188 187 195 199 203 207 211 214 214 212 213 210 215 222 227 217 196 191 203 206
210 216 175 193 218 172 217 102 40 51 127 188 200 165 239 181 214 224 215 210 200 195 196 193 194 189 189 196 202 208 211 217 216 215 214 214 216 217 208 196 190 192 196 209
175 239 215 160 239 133 96 81 330 336 9 214 183 144 235 210 216 215 204 203 200 194 193 192 189 187 187 191 201 208 212 215 214 215 216 215 221 213 206 198 196 197 198 198
171 228 193 197 187 178 180 161 164 190 203 225 139 201 238 212 221 216 210 206 195 196 196 195 191 187 192 195 199 202 208 212 214 214 215 215 206 207 202 200 203 204 201 202
163 253 279 211 189 165 208 161 197 140 357 92 216 275 328 321 220 200 200 190 202 200 195 195 190 191 196 200 202 202 205 208 212 213 212 204 202 197 198 201 193 198 206 210
213 254 215 235 171 231 203 167 102 0 168 232 238 235 217 219 205 203 195 200 204 199 194 189 191 193 199 204 207 206 207 206 208 210 209 204 201 202 203 203 212 214 215 211
158 157 264 159 196 205 127 176 70 132 143 174 223 256 214 225 188 187 197 207 192 188 186 189 194 198 201 205 204 205 205 203 205 209 209 204 201 201 205 206 205 210 213 206
200 176 230 227 226 188 184 201 182 207 240 190 167 259 229 220 193 189 200 196 185 182 183 192 196 201 204 206 203 204 203 200 205 206 208 204 200 199 201 206 212 212 213 212
171 205 206 323 332 96 181 187 173 124 97 184 157 249 274 177 176 188 178 188 185 189 183 195 199 204 208 207 205 204 203 204 200 202 207 201 197 203 206 211 215 216 217 219
157 143 204 223 217 161 186 186 195 154 139 168 210 197 245 215 186 205 200 188 192 198 196 193 199 208 212 210 207 203 206 203 198 200 201 201 200 208 212 214 219 223 224 223
167 191 178 225 215 189 218 207 204 172 177 171 211 191 212 205 200 204 200 183 187 199 205 201 203 208 210 209 203 204 208 202 200 197 196 202 203 209 215 214 218 226 227 228
175 227 156 228 210 197 230 246 210 228 160 125 141 217 216 211 89 129 194 193 196 186 203 203 210 210 207 208 201 202 203 201 198 198 200 190 202 209 219 211 218 224 229 230
172 186 141 224 181 170 219 222 195 157 59 143 148 219 167 164 196 199 205 199 196 189 182 194 201 204 206 211 206 206 206 201 201 203 181 191 205 215 216 211 217 226 233 234
215 192 200 209 114 202 236 308 142 114 114 83 319 259 182 201 204 211 213 178 175 169 180 201 198 210 218 217 206 207 201 200 201 203 184 181 195 213 213 215 218 231 237 238
244 130 111 148 166 182 358 360 289 137 343 23 5 314 319 131 79 20 144 148 168 172 165 178 189 208 223 218 212 204 193 191 199 189 177 179 211 210 212 215 222 234 242 248
176 95 114 158 140 183 217 329 351 297 60 20 59 57 81 49 163 282 355 62 132 155 157 167 188 202 220 233 210 192 179 182 198 198 191 196 201 206 212 219 229 241 243 253
335 8 71 348 103 172 11 326 303 74 236 17 86 110 85 83 168 266 76 58 52 20 323 353 177 202 224 205 190 184 179 193 204 201 198 202 206 204 196 180 162 10 339 274
82 44 16 358 73 54 352 350 96 209 46 56 65 56 84 101 72 47 44 54 48 22 0 21 8 330 285 189 182 178 187 197 196 201 197 191 188 177 182 190 201 234 335 303
65 169 143 203 177 274 285 69 41 29 92 79 76 58 75 57 40 33 19 20 5 354 353 2 327 280 232 201 197 178 178 173 179 181 169 133 140 130 85 193 206 237 238 221
110 112 125 71 346 309 5 47 47 59 73 51 36 54 63 70 56 42 46 10 345 355 7 4 23 232 176 190 179 161 155 160 146 124 119 121 79 207 160 85 227 235 237 216
220 131 131 101 167 176 33 18 360 47 49 58 47 39 27 23 21 10 0 358 347 308 26 53 93 82 84 117 120 137 137 132 118 121 152 167 223 314 233 230 215 213 209 226
342 174 159 182 146 113 351 356 34 63 60 60 60 38 27 47 43 29 21 354 338 347 162 119 126 115 117 119 127 131 144 130 138 152 139 147 257 245 235 216 193 193 218 220